| time (UTC) | temp F | wind direction | speed MPH | gust MPH | rain 1hr in | rain 24hr in | rain mn in | humidity % | barometer mb |
| 20260502130108 | 55 | 37 | 0.0 | 1.0 | 0.00 | 0.00 | 0.00 | 96 | 1013.4 |
| 20260502123118 | 54 | 27 | 1.0 | 2.0 | 0.00 | 0.00 | 0.00 | 96 | 1013.2 |
| 20260502122805 | 55 | 27 | 0.0 | 1.0 | 0.00 | 0.00 | 0.00 | 96 | 1013.1 |
| 20260502121504 | 54 | 42 | 0.0 | 0.0 | 0.00 | 0.00 | 0.00 | 96 | 1013.0 |
| 20260502120628 | 55 | 42 | 0.0 | 1.0 | 0.00 | 0.00 | 0.00 | 96 | 1013.0 |
| 20260502115609 | 54 | 43 | 0.0 | 0.0 | 0.00 | 0.00 | 0.00 | 96 | 1012.9 |
| 20260502114620 | 54 | 43 | 0.0 | 0.0 | 0.00 | 0.00 | 0.00 | 96 | 1012.8 |
| 20260502114608 | 54 | 43 | 0.0 | 1.0 | 0.00 | 0.00 | 0.00 | 96 | 1012.8 |
| 20260502113602 | 54 | 43 | 0.0 | 0.0 | 0.00 | 0.00 | 0.00 | 96 | 1012.6 |
| 20260502113002 | 54 | 43 | 0.0 | 1.0 | 0.00 | 0.00 | 0.00 | 96 | 1012.6 |
| 20260502111602 | 53 | 43 | 0.0 | 1.0 | 0.00 | 0.00 | 0.00 | 95 | 1012.7 |
| 20260502105133 | 53 | 42 | 0.0 | 0.0 | 0.00 | 0.00 | 0.00 | 95 | 1012.3 |
| 20260502104506 | 53 | 42 | 0.0 | 1.0 | 0.00 | 0.00 | 0.00 | 95 | 1012.4 |
| 20260502103103 | 52 | 43 | 0.0 | 1.0 | 0.00 | 0.00 | 0.00 | 94 | 1012.4 |
| 20260502101503 | 53 | 42 | 0.0 | 1.0 | 0.00 | 0.00 | 0.00 | 95 | 1012.4 |
| 20260502100808 | 53 | 42 | 0.0 | 0.0 | 0.00 | 0.00 | 0.00 | 95 | 1012.3 |
| 20260502090809 | 54 | 95 | 0.0 | 0.0 | 0.00 | 0.00 | 0.00 | 94 | 1012.5 |
| 20260502090106 | 54 | 95 | 0.0 | 1.0 | 0.00 | 0.00 | 0.00 | 94 | 1012.5 |
| 20260502065502 | 54 | 167 | 0.0 | 0.0 | 0.00 | 0.00 | 0.00 | 93 | 1013.3 |
| 20260502064502 | 54 | 167 | 0.0 | 1.0 | 0.00 | 0.00 | 0.00 | 93 | 1013.3 |
| 20260502064435 | 54 | 167 | 0.0 | 0.0 | 0.00 | 0.00 | 0.00 | 93 | 1013.3 |
| 20260502063102 | 54 | 167 | 0.0 | 0.0 | 0.00 | 0.00 | 0.00 | 92 | 1013.2 |
| 20260502061502 | 55 | 167 | 0.0 | 0.0 | 0.00 | 0.00 | 0.00 | 92 | 1013.1 |
| 20260502061144 | 55 | 167 | 0.0 | 0.0 | 0.00 | 0.00 | 0.00 | 92 | 1013.1 |
| 20260502060203 | 56 | 167 | 0.0 | 0.0 | 0.00 | 0.00 | 0.00 | 92 | 1013.1 |
| 20260502060002 | 55 | 167 | 0.0 | 0.0 | 0.00 | 0.00 | 0.00 | 92 | 1013.1 |
| 20260502055214 | 56 | 176 | 0.0 | 0.0 | 0.00 | 0.00 | 0.00 | 92 | 1013.1 |
| 20260502054608 | 56 | 176 | 0.0 | 1.0 | 0.00 | 0.00 | 0.00 | 92 | 1013.2 |
| 20260502054230 | 57 | 175 | 0.0 | 0.0 | 0.00 | 0.00 | 0.00 | 92 | 1013.2 |
| 20260502053157 | 57 | 175 | 0.0 | 0.0 | 0.00 | 0.00 | 0.00 | 91 | 1013.2 |
| 20260502053003 | 56 | 175 | 0.0 | 0.0 | 0.00 | 0.00 | 0.00 | 91 | 1013.3 |
| 20260502052204 | 57 | 169 | 0.0 | 0.0 | 0.00 | 0.00 | 0.00 | 91 | 1013.2 |
| 20260502051609 | 57 | 170 | 0.0 | 1.0 | 0.00 | 0.00 | 0.00 | 91 | 1013.2 |
| 20260502051154 | 57 | 64 | 0.0 | 0.0 | 0.00 | 0.00 | 0.00 | 91 | 1013.1 |
| 20260502050133 | 57 | 141 | 0.0 | 0.0 | 0.00 | 0.00 | 0.00 | 91 | 1013.1 |
| 20260502050109 | 57 | 141 | 0.0 | 0.0 | 0.00 | 0.00 | 0.00 | 91 | 1013.0 |
| 20260502045149 | 57 | 150 | 0.0 | 0.0 | 0.00 | 0.00 | 0.00 | 91 | 1013.0 |
| 20260502044502 | 57 | 150 | 0.0 | 2.0 | 0.00 | 0.00 | 0.00 | 91 | 1013.0 |
| 20260502044133 | 57 | 144 | 0.0 | 0.0 | 0.00 | 0.00 | 0.00 | 91 | 1012.9 |
| 20260502043118 | 57 | 144 | 0.0 | 0.0 | 0.00 | 0.00 | 0.00 | 90 | 1012.7 |
| 20260502043104 | 56 | 144 | 0.0 | 1.0 | 0.00 | 0.00 | 0.00 | 90 | 1012.8 |
| 20260502042120 | 57 | 153 | 0.0 | 0.0 | 0.00 | 0.00 | 0.00 | 90 | 1012.7 |
| 20260502041503 | 56 | 153 | 0.0 | 0.0 | 0.00 | 0.00 | 0.00 | 89 | 1012.7 |
| 20260502041102 | 57 | 153 | 0.0 | 0.0 | 0.00 | 0.00 | 0.00 | 89 | 1012.6 |
| 20260502040002 | 57 | 153 | 0.0 | 0.0 | 0.00 | 0.00 | 0.00 | 89 | 1012.4 |
| 20260502034915 | 58 | 153 | 0.0 | 0.0 | 0.00 | 0.00 | 0.00 | 88 | 1012.2 |
| 20260502034602 | 57 | 153 | 0.0 | 0.0 | 0.00 | 0.00 | 0.00 | 88 | 1012.2 |
| 20260502033930 | 58 | 153 | 0.0 | 0.0 | 0.00 | 0.00 | 0.00 | 87 | 1012.0 |
| 20260502033002 | 58 | 153 | 0.0 | 0.0 | 0.00 | 0.00 | 0.00 | 86 | 1011.8 |
| 20260502032952 | 58 | 153 | 0.0 | 0.0 | 0.00 | 0.00 | 0.00 | 86 | 1011.8 |
| 20260502032012 | 59 | 153 | 0.0 | 0.0 | 0.00 | 0.00 | 0.00 | 86 | 1011.7 |
| 20260502031602 | 59 | 151 | 0.0 | 0.0 | 0.00 | 0.00 | 0.00 | 86 | 1011.7 |
| 20260502031027 | 59 | 151 | 0.0 | 0.0 | 0.00 | 0.00 | 0.00 | 86 | 1011.6 |
| 20260502030104 | 59 | 200 | 0.0 | 2.0 | 0.00 | 0.00 | 0.00 | 86 | 1011.5 |
| 20260502030006 | 60 | 199 | 0.0 | 1.0 | 0.00 | 0.00 | 0.00 | 86 | 1011.4 |
| 20260502024949 | 60 | 203 | 0.0 | 2.0 | 0.00 | 0.00 | 0.00 | 85 | 1011.4 |
| 20260502024502 | 60 | 169 | 0.0 | 3.0 | 0.00 | 0.00 | 0.00 | 84 | 1011.4 |
| 20260502023919 | 61 | 210 | 0.0 | 1.0 | 0.00 | 0.00 | 0.00 | 84 | 1011.5 |
| 20260502023102 | 61 | 153 | 0.0 | 2.0 | 0.00 | 0.00 | 0.00 | 83 | 1011.4 |
| 20260502022929 | 61 | 228 | 0.0 | 3.0 | 0.00 | 0.00 | 0.00 | 83 | 1011.4 |
| 20260502021936 | 62 | 153 | 0.0 | 3.0 | 0.00 | 0.00 | 0.00 | 82 | 1011.2 |
| 20260502021502 | 62 | 199 | 2.0 | 4.0 | 0.00 | 0.00 | 0.00 | 81 | 1011.3 |
| 20260502020928 | 62 | 231 | 0.0 | 1.0 | 0.00 | 0.00 | 0.00 | 81 | 1011.2 |
| 20260502020003 | 63 | 243 | 1.0 | 4.0 | 0.00 | 0.00 | 0.00 | 80 | 1011.2 |
| 20260502015908 | 63 | 163 | 0.0 | 1.0 | 0.00 | 0.00 | 0.00 | 79 | 1011.1 |
| 20260502014837 | 64 | 212 | 1.0 | 4.0 | 0.00 | 0.00 | 0.00 | 79 | 1011.1 |
| 20260502014602 | 63 | 250 | 1.0 | 4.0 | 0.00 | 0.00 | 0.00 | 78 | 1011.1 |
| 20260502013846 | 64 | 285 | 0.0 | 4.0 | 0.00 | 0.00 | 0.00 | 77 | 1011.0 |
| 20260502013003 | 64 | 222 | 0.0 | 3.0 | 0.00 | 0.00 | 0.00 | 77 | 1010.9 |
| 20260502012815 | 65 | 250 | 1.0 | 3.0 | 0.00 | 0.00 | 0.00 | 77 | 1010.9 |
| 20260502011814 | 65 | 194 | 0.0 | 2.0 | 0.00 | 0.00 | 0.00 | 76 | 1010.9 |
| 20260502011603 | 65 | 221 | 1.0 | 3.0 | 0.00 | 0.00 | 0.00 | 76 | 1010.9 |
| 20260502010807 | 65 | 212 | 1.0 | 5.0 | 0.00 | 0.00 | 0.00 | 76 | 1010.9 |
| 20260502005736 | 65 | 212 | 1.0 | 5.0 | 0.00 | 0.00 | 0.00 | 76 | 1011.0 |
| 20260502004800 | 66 | 236 | 1.0 | 4.0 | 0.00 | 0.00 | 0.00 | 75 | 1010.9 |
| 20260502004508 | 65 | 230 | 3.0 | 5.0 | 0.00 | 0.00 | 0.00 | 75 | 1010.9 |
| 20260502003814 | 66 | 140 | 1.0 | 5.0 | 0.00 | 0.00 | 0.00 | 75 | 1010.9 |
| 20260502003102 | 65 | 271 | 1.0 | 6.0 | 0.00 | 0.00 | 0.00 | 75 | 1011.0 |
| 20260502002836 | 66 | 187 | 2.0 | 5.0 | 0.00 | 0.00 | 0.00 | 75 | 1011.0 |
| 20260502001826 | 66 | 185 | 2.0 | 7.0 | 0.00 | 0.00 | 0.00 | 74 | 1010.9 |
| 20260502001503 | 66 | 133 | 2.0 | 6.0 | 0.00 | 0.00 | 0.00 | 74 | 1011.0 |
| 20260502000813 | 66 | 200 | 2.0 | 9.0 | 0.00 | 0.00 | 0.00 | 74 | 1011.1 |
| 20260502000003 | 66 | 269 | 3.0 | 6.0 | 0.00 | 0.00 | 0.00 | 73 | 1011.1 |
| 20260501235801 | 67 | 214 | 2.0 | 9.0 | 0.00 | 0.00 | 0.00 | 73 | 1011.0 |
| 20260501234757 | 68 | 243 | 2.0 | 8.0 | 0.00 | 0.00 | 0.00 | 72 | 1011.1 |
| 20260501234603 | 67 | 233 | 3.0 | 8.0 | 0.00 | 0.00 | 0.00 | 72 | 1011.1 |
| 20260501233737 | 68 | 240 | 2.0 | 8.0 | 0.00 | 0.00 | 0.00 | 73 | 1011.0 |
| 20260501233003 | 67 | 176 | 3.0 | 9.0 | 0.00 | 0.00 | 0.00 | 72 | 1011.1 |
| 20260501232709 | 68 | 152 | 4.0 | 8.0 | 0.00 | 0.00 | 0.00 | 72 | 1011.1 |
| 20260501231719 | 69 | 247 | 4.0 | 8.0 | 0.00 | 0.00 | 0.00 | 70 | 1011.1 |
| 20260501231603 | 68 | 206 | 3.0 | 9.0 | 0.00 | 0.00 | 0.00 | 71 | 1011.1 |
| 20260501230741 | 70 | 142 | 3.0 | 8.0 | 0.00 | 0.00 | 0.00 | 67 | 1011.0 |
| 20260501230107 | 70 | 240 | 4.0 | 8.0 | 0.00 | 0.00 | 0.00 | 68 | 1011.2 |
| 20260501225741 | 70 | 205 | 3.0 | 8.0 | 0.00 | 0.00 | 0.00 | 68 | 1011.1 |
| 20260501224723 | 71 | 172 | 3.0 | 8.0 | 0.00 | 0.00 | 0.00 | 67 | 1011.3 |
| 20260501224504 | 70 | 195 | 4.0 | 9.0 | 0.00 | 0.00 | 0.00 | 65 | 1011.3 |
| 20260501223711 | 71 | 256 | 2.0 | 8.0 | 0.00 | 0.00 | 0.00 | 65 | 1011.3 |
| 20260501223103 | 71 | 234 | 3.0 | 8.0 | 0.00 | 0.00 | 0.00 | 64 | 1011.4 |
| 20260501222637 | 71 | 169 | 3.0 | 7.0 | 0.00 | 0.00 | 0.00 | 67 | 1011.5 |
| 20260501221613 | 71 | 207 | 3.0 | 9.0 | 0.00 | 0.00 | 0.00 | 65 | 1011.6 |
| 20260501221509 | 70 | 207 | 4.0 | 8.0 | 0.00 | 0.00 | 0.00 | 65 | 1011.7 |
| 20260501220009 | 70 | 214 | 2.0 | 9.0 | 0.00 | 0.00 | 0.00 | 66 | 1011.9 |
| 20260501215445 | 71 | 148 | 3.0 | 9.0 | 0.00 | 0.00 | 0.00 | 65 | 1011.9 |
| 20260501214607 | 70 | 153 | 4.0 | 10.0 | 0.00 | 0.00 | 0.00 | 66 | 1012.1 |
| 20260501214421 | 71 | 243 | 4.0 | 11.0 | 0.00 | 0.00 | 0.00 | 66 | 1012.1 |
| 20260501213002 | 70 | 328 | 4.0 | 12.0 | 0.00 | 0.00 | 0.00 | 65 | 1012.4 |
| 20260501212224 | 72 | 232 | 4.0 | 10.0 | 0.00 | 0.00 | 0.00 | 64 | 1012.3 |
| 20260501211614 | 71 | 165 | 4.0 | 9.0 | 0.00 | 0.00 | 0.00 | 65 | 1012.4 |
| 20260501211229 | 71 | 181 | 3.0 | 8.0 | 0.00 | 0.00 | 0.00 | 65 | 1012.3 |
| 20260501210239 | 71 | 232 | 4.0 | 8.0 | 0.00 | 0.00 | 0.00 | 64 | 1012.4 |
| 20260501205217 | 72 | 181 | 3.0 | 8.0 | 0.00 | 0.00 | 0.00 | 64 | 1012.5 |
| 20260501204507 | 71 | 227 | 5.0 | 9.0 | 0.00 | 0.00 | 0.00 | 64 | 1012.6 |
| 20260501204156 | 72 | 192 | 3.0 | 10.0 | 0.00 | 0.00 | 0.00 | 63 | 1012.6 |
| 20260501203108 | 71 | 207 | 4.0 | 11.0 | 0.00 | 0.00 | 0.00 | 63 | 1012.6 |
| 20260501202003 | 73 | 210 | 1.0 | 9.0 | 0.00 | 0.00 | 0.00 | 62 | 1012.6 |
| 20260501201503 | 71 | 63 | 0.0 | 10.0 | 0.00 | 0.00 | 0.00 | 62 | 1012.6 |
| 20260501200958 | 71 | 250 | 4.0 | 9.0 | 0.00 | 0.00 | 0.00 | 61 | 1012.6 |
| 20260501200002 | 72 | 223 | 3.0 | 7.0 | 0.00 | 0.00 | 0.00 | 60 | 1012.8 |
| 20260501194619 | 70 | 245 | 1.0 | 6.0 | 0.00 | 0.00 | 0.00 | 63 | 1013.0 |
| 20260501193644 | 70 | 4 | 2.0 | 6.0 | 0.00 | 0.00 | 0.00 | 63 | 1013.0 |
| 20260501193002 | 70 | 245 | 3.0 | 7.0 | 0.00 | 0.00 | 0.00 | 65 | 1013.1 |
| 20260501192612 | 70 | 172 | 1.0 | 5.0 | 0.00 | 0.00 | 0.00 | 66 | 1013.1 |
| 20260501191602 | 68 | 200 | 1.0 | 6.0 | 0.00 | 0.00 | 0.00 | 68 | 1013.4 |
| 20260501191558 | 69 | 233 | 2.0 | 5.0 | 0.00 | 0.00 | 0.00 | 68 | 1013.3 |
| 20260501190618 | 69 | 283 | 2.0 | 5.0 | 0.00 | 0.00 | 0.00 | 68 | 1013.5 |
| 20260501185559 | 68 | 224 | 2.0 | 7.0 | 0.00 | 0.00 | 0.00 | 69 | 1013.8 |
| 20260501183357 | 67 | 243 | 1.0 | 5.0 | 0.00 | 0.00 | 0.00 | 71 | 1014.0 |
| 20260501183103 | 67 | 130 | 2.0 | 5.0 | 0.00 | 0.00 | 0.00 | 71 | 1014.1 |
| 20260501182330 | 67 | 212 | 0.0 | 3.0 | 0.00 | 0.00 | 0.00 | 70 | 1014.1 |
| 20260501181502 | 66 | 217 | 1.0 | 4.0 | 0.00 | 0.00 | 0.00 | 73 | 1014.3 |
| 20260501181343 | 67 | 191 | 0.0 | 2.0 | 0.00 | 0.00 | 0.00 | 75 | 1014.2 |
| 20260501180323 | 65 | 345 | 0.0 | 1.0 | 0.00 | 0.00 | 0.00 | 75 | 1014.4 |
| 20260501180002 | 64 | 54 | 1.0 | 2.0 | 0.00 | 0.00 | 0.00 | 75 | 1014.4 |
| 20260501175330 | 64 | 193 | 0.0 | 0.0 | 0.00 | 0.00 | 0.00 | 79 | 1014.5 |
| 20260501174602 | 62 | 208 | 1.0 | 3.0 | 0.00 | 0.00 | 0.00 | 79 | 1014.5 |
| 20260501174349 | 62 | 193 | 0.0 | 3.0 | 0.00 | 0.00 | 0.00 | 80 | 1014.5 |
| 20260501173356 | 62 | 248 | 1.0 | 3.0 | 0.00 | 0.00 | 0.00 | 81 | 1014.6 |
| 20260501173003 | 61 | 219 | 0.0 | 4.0 | 0.00 | 0.00 | 0.00 | 81 | 1014.6 |
| 20260501171604 | 61 | 176 | 1.0 | 5.0 | 0.00 | 0.00 | 0.00 | 82 | 1014.6 |
| 20260501171303 | 61 | 246 | 1.0 | 4.0 | 0.00 | 0.00 | 0.00 | 82 | 1014.5 |
| 20260501170241 | 61 | 245 | 0.0 | 4.0 | 0.00 | 0.00 | 0.00 | 83 | 1014.5 |
| 20260501164503 | 60 | 241 | 2.0 | 5.0 | 0.00 | 0.00 | 0.00 | 82 | 1014.6 |
| 20260501164137 | 61 | 194 | 0.0 | 2.0 | 0.00 | 0.00 | 0.00 | 82 | 1014.6 |
| 20260501163135 | 61 | 246 | 0.0 | 1.0 | 0.00 | 0.00 | 0.00 | 83 | 1014.5 |
| 20260501163104 | 60 | 247 | 0.0 | 3.0 | 0.00 | 0.00 | 0.00 | 84 | 1014.6 |
| 20260501162142 | 61 | 355 | 0.0 | 0.0 | 0.00 | 0.00 | 0.00 | 83 | 1014.4 |
| 20260501161504 | 60 | 58 | 0.0 | 1.0 | 0.00 | 0.00 | 0.00 | 83 | 1014.5 |
| 20260501160002 | 60 | 186 | 0.0 | 0.0 | 0.00 | 0.00 | 0.00 | 86 | 1014.4 |
| 20260501154605 | 59 | 162 | 0.0 | 2.0 | 0.00 | 0.00 | 0.00 | 86 | 1014.2 |
| 20260501153833 | 60 | 40 | 0.0 | 0.0 | 0.00 | 0.00 | 0.00 | 86 | 1014.1 |
| 20260501153002 | 59 | 40 | 0.0 | 2.0 | 0.00 | 0.00 | 0.00 | 86 | 1014.2 |
| 20260501152823 | 59 | 37 | 0.0 | 0.0 | 0.00 | 0.00 | 0.00 | 87 | 1014.1 |
| 20260501151603 | 59 | 37 | 0.0 | 2.0 | 0.00 | 0.00 | 0.00 | 88 | 1014.1 |
| 20260501150641 | 59 | 32 | 0.0 | 1.0 | 0.00 | 0.00 | 0.00 | 88 | 1014.0 |
| 20260501150115 | 58 | 220 | 0.0 | 1.0 | 0.00 | 0.00 | 0.00 | 88 | 1014.1 |
| 20260501144504 | 58 | 229 | 0.0 | 2.0 | 0.00 | 0.00 | 0.00 | 88 | 1013.9 |
| 20260501143417 | 58 | 0 | 0.0 | 0.0 | 0.00 | 0.00 | 0.00 | 88 | 1013.8 |
| 20260501143106 | 58 | 1 | 0.0 | 2.0 | 0.00 | 0.00 | 0.00 | 88 | 1013.8 |